Concordia, KS

1:28 PM CDT on April 20, 2018 (GMT -0500)
Blosser Municipal

Weather History for KCNK - May, 2013

Change the Weather History Date:

Saturday, May 18, 2013

  Actual Average Record
Temperature  
Mean Temperature 72 °F 64 °F  
Max Temperature 84 °F 75 °F 94 °F (1967)
Min Temperature 60 °F 53 °F 38 °F (1915)
Degree Days  
Heating Degree Days 0 4  
Month to date heating degree days 139 99  
Since 1 July heating degree days 5486 5363  
Cooling Degree Days 7 2  
Month to date cooling degree days 36 26  
Year to date cooling degree days 46 43  
Growing Degree Days 22 (Base 50)    
Moisture  
Dew Point 63 °F    
Average Humidity 80    
Maximum Humidity 97    
Minimum Humidity 63    
Precipitation  
Precipitation 0.82 in 0.14 in 1.69 in (1981)
Month to date precipitation 3.91 2.29  
Year to date precipitation 9.76 8.12  
Snow  
Snow 0.00 in 0.00 in T in (1949)
Month to date snowfall T 0.0  
Year to date snowfall 20.3 13.7  
Since 1 July snowfall 28.8 20.2  
Snow Depth 0.00 in    
Sea Level Pressure  
Sea Level Pressure 29.78 in    
Wind  
Wind Speed 11 mph (SE)    
Max Wind Speed 28 mph    
Max Gust Speed 33 mph    
Visibility 6 miles    
Events Rain , Thunderstorm    
T = Trace of Precipitation, MM = Missing Value Source: NWS Daily Summary

Daily Weather History Graph

Daily Weather History Graph

Search for Another Location

Airport or City:

Astronomy

May. 18, 2013 Rise Set
Actual Time 6:13 AM CDT 8:40 PM CDT
Civil Twilight 5:42 AM CDT 9:11 PM CDT
Nautical Twilight 5:05 AM CDT 9:49 PM CDT
Astronomical Twilight 4:22 AM CDT 10:32 PM CDT
Moon 1:47 PM CDT (5/18) 2:05 AM CDT (5/18)
Length of Visible Light 15h 28m
Length of Day
14h 27m
First Quarter, 55% of the Moon is Illuminated
May 18
First Quarter
May 24
Full
May 31
Last Quarter
Jun 8
New
Jun 16
First Quarter

Hourly Weather History & Observations

Time (CDT) Temp. Heat Index Dew Point Humidity Pressure Visibility Wind Dir Wind Speed Gust Speed Precip Events Conditions
12:55 AM 64.9 °F - 60.1 °F 84% 29.84 in 10.0 mi SE 8.1 mph - N/A   Clear
1:55 AM 63.0 °F - 59.0 °F 87% 29.84 in 10.0 mi SE 8.1 mph - N/A   Clear
2:55 AM 64.0 °F - 60.1 °F 87% 29.82 in 10.0 mi SE 6.9 mph - N/A   Scattered Clouds
3:55 AM 62.1 °F - 59.0 °F 90% 29.81 in 9.0 mi SE 5.8 mph - N/A   Clear
4:55 AM 60.1 °F - 59.0 °F 96% 29.82 in 8.0 mi ESE 4.6 mph - N/A   Partly Cloudy
5:14 AM 60.8 °F - 59.0 °F 94% 29.85 in 7.0 mi ESE 4.6 mph - N/A   Mostly Cloudy
5:24 AM 62.6 °F - 59.0 °F 88% 29.84 in 8.0 mi ESE 5.8 mph - N/A   Mostly Cloudy
5:55 AM 62.1 °F - 60.1 °F 93% 29.80 in 8.0 mi ESE 5.8 mph - N/A   Scattered Clouds
6:07 AM 62.6 °F - 60.8 °F 94% 29.83 in 7.0 mi ESE 5.8 mph - N/A   Mostly Cloudy
6:30 AM 62.6 °F - 60.8 °F 94% 29.82 in 5.0 mi SE 8.1 mph - N/A   Partly Cloudy
6:55 AM 64.0 °F - 62.1 °F 93% 29.78 in 5.0 mi SE 6.9 mph - N/A   Clear
7:37 AM 66.2 °F - 64.4 °F 94% 29.83 in 6.0 mi SSE 10.4 mph - N/A   Mostly Cloudy
7:55 AM 68.0 °F - 64.9 °F 90% 29.79 in 6.0 mi SSE 10.4 mph - N/A   Overcast
8:05 AM 68.0 °F - 64.4 °F 88% 29.83 in 6.0 mi SSE 11.5 mph - N/A   Overcast
8:45 AM 69.8 °F - 64.4 °F 83% 29.83 in 7.0 mi SE 8.1 mph - N/A   Overcast
8:55 AM 69.1 °F - 64.9 °F 87% 29.81 in 7.0 mi SSE 5.8 mph - N/A   Overcast
9:55 AM 71.1 °F - 66.0 °F 84% 29.80 in 6.0 mi SE 8.1 mph - N/A   Haze
10:55 AM 72.0 °F - 66.9 °F 84% 29.79 in 6.0 mi SSE 16.1 mph - N/A   Haze
11:55 AM 72.0 °F - 66.9 °F 84% 29.78 in 5.0 mi SSE 13.8 mph - N/A   Haze
12:35 PM 71.6 °F - 68.0 °F 88% 29.83 in 2.5 mi SSE 10.4 mph - N/A   Overcast
12:55 PM 73.9 °F - 70.0 °F 87% 29.78 in 4.0 mi SE 9.2 mph - N/A   Overcast
1:03 PM 75.2 °F - 69.8 °F 83% 29.81 in 5.0 mi SE 12.7 mph - N/A   Haze
1:28 PM 73.4 °F - 68.0 °F 83% 29.81 in 5.0 mi SE 10.4 mph - 0.00 in Rain Light Rain
1:55 PM 78.8 °F - 69.8 °F 74% 29.80 in 6.0 mi SE 13.8 mph 18.4 mph N/A   Haze
2:08 PM 78.8 °F - 68.0 °F 69% 29.79 in 7.0 mi SSE 11.5 mph - N/A   Mostly Cloudy
2:55 PM 81.0 °F 84.1 °F 69.1 °F 67% 29.73 in 8.0 mi ESE 10.4 mph 18.4 mph N/A   Scattered Clouds
3:55 PM 82.0 °F 84.9 °F 68.0 °F 62% 29.70 in 9.0 mi SE 15.0 mph 23.0 mph N/A   Partly Cloudy
4:55 PM 82.0 °F 85.9 °F 70.0 °F 67% 29.69 in 9.0 mi SE 13.8 mph 23.0 mph N/A   Clear
5:55 PM 81.0 °F 84.4 °F 70.0 °F 69% 29.63 in 8.0 mi SE 20.7 mph 28.8 mph N/A   Partly Cloudy
6:55 PM 78.1 °F - 68.0 °F 71% 29.64 in 7.0 mi SE 17.3 mph - N/A   Clear
7:55 PM 75.9 °F - 68.0 °F 76% 29.65 in 6.0 mi ESE 9.2 mph - N/A   Haze
8:55 PM 75.0 °F - 68.0 °F 79% 29.68 in 7.0 mi SE 8.1 mph - N/A   Scattered Clouds
9:40 PM 73.4 °F - 64.4 °F 73% 29.71 in 8.0 mi North 20.7 mph 26.5 mph N/A Thunderstorm Partly Cloudy
9:51 PM 69.8 °F - 55.4 °F 60% 29.72 in 10.0 mi East 9.2 mph - N/A   Mostly Cloudy
9:55 PM 70.0 °F - 55.0 °F 59% 29.70 in 10.0 mi Variable 5.8 mph - N/A Thunderstorm Thunderstorm
10:05 PM 71.6 °F - 55.4 °F 57% 29.72 in 10.0 mi Variable 6.9 mph - N/A Thunderstorm Thunderstorm
10:25 PM 64.4 °F - 59.0 °F 83% 29.80 in 2.0 mi West 21.9 mph 33.4 mph 0.02 in Rain , Thunderstorm Heavy Thunderstorms and Rain
10:27 PM 62.6 °F - 59.0 °F 88% 29.81 in 1.5 mi West 25.3 mph 31.1 mph 0.07 in Rain , Thunderstorm Heavy Thunderstorms and Rain
10:30 PM 62.6 °F - 59.0 °F 88% 29.84 in 1.2 mi SW 19.6 mph 31.1 mph 0.17 in Rain , Thunderstorm Heavy Thunderstorms and Rain
10:36 PM 62.6 °F - 60.8 °F 94% 29.84 in 1.5 mi SSW 11.5 mph - 0.30 in Rain , Thunderstorm Heavy Thunderstorms and Rain
10:45 PM 60.8 °F - 57.2 °F 88% 29.82 in 1.8 mi SSW 15.0 mph 23.0 mph 0.53 in Rain , Thunderstorm Heavy Thunderstorms and Rain
10:50 PM 60.8 °F - 57.2 °F 88% 29.81 in 2.0 mi SW 11.5 mph 23.0 mph 0.64 in Rain , Thunderstorm Heavy Thunderstorms and Rain
10:55 PM 61.0 °F - 57.0 °F 87% 29.79 in 2.5 mi SW 13.8 mph - 0.70 in Rain , Thunderstorm Heavy Thunderstorms and Rain
11:02 PM 62.6 °F - 57.2 °F 82% 29.78 in 4.0 mi WSW 12.7 mph - 0.04 in Rain , Thunderstorm Thunderstorms and Rain
11:55 PM 62.6 °F - 57.2 °F 82% 29.73 in 10.0 mi East 15.0 mph 23.0 mph N/A Rain , Thunderstorm Light Rain